This demonstration page uses our WeatherBlox Daily Observations layout. Learn more.

Left ArrowRight Arrow

39.95238, -75.16362

Hourly Observations for September 4, 2019

Temp ( °F °C ) Dew Point ( °F °C ) Humidity (%) Winds ( mph kmh ) Pressure ( in mb ) Visibility ( mi km ) Precip ( " mm )
12:54 am 00:54 Mostly Clear 69 20.6 63 17.2 81 81 SE 3 6 30.04 1017 10 16 0.00 0.00
1:21 am 01:21 Partly Cloudy 69 20.6 63 17.2 81 81 SSE 6 9 30.03 1017 10 16 0.00 0.00
1:29 am 01:29 Mostly Cloudy 69 20.6 64 17.8 84 84 SE 6 9 30.03 1017 10 16 0.00 0.00
1:54 am 01:54 Cloudy 69 20.6 65 18.3 87 87 SSE 5 7 30.01 1016 10 16 0.00 0.00
2:11 am 02:11 Cloudy 69 20.6 66 18.9 90 90 SE 5 7 30.01 1016 10 16 0.00 0.00
2:54 am 02:54 Cloudy 69 20.6 66 18.9 90 90 SE 5 7 29.98 1015 10 16 0.00 0.00
3:28 am 03:28 Cloudy 70 21.1 67 19.4 90 90 SW 7 11 30.00 1016 7 11 0.00 0.00
3:41 am 03:41 Cloudy with Mist and Fog 70 21.1 67 19.4 90 90 SW 7 11 30.00 1016 5 8 0.00 0.00
3:54 am 03:54 Cloudy with Mist and Fog 70 21.1 67 19.4 90 90 WSW 5 7 29.99 1016 5 8 0.00 0.00
4:01 am 04:01 Cloudy with Mist and Fog 70 21.1 67 19.4 90 90 WSW 5 7 29.99 1016 6 10 0.00 0.00
4:37 am 04:37 Cloudy with Mist and Fog 70 21.1 67 19.4 90 90 SSW 6 9 30.00 1016 5 8 0.00 0.00
4:48 am 04:48 Cloudy with Mist and Fog 70 21 66 19 88 88 SW 7 11 30.00 1016 3 5 0.00 0.00
4:52 am 04:52 Cloudy with Mist and Fog 70 21 66 19 88 88 SSW 6 9 30.00 1016 1 2 0.00 0.00
5:00 am 05:00 Cloudy with Mist and Fog 70 21.1 67 19.4 90 90 S 6 9 29.99 1016 2 3 0.00 0.00
5:32 am 05:32 Cloudy with Mist and Fog 70 21.1 67 19.4 90 90 S 8 13 30.00 1016 5 8 0.00 0.00
5:47 am 05:47 Cloudy 70 21.1 67 19.4 90 90 S 8 13 30.00 1016 7 11 0.00 0.00
5:54 am 05:54 Mostly Cloudy 70 21.1 67 19.4 90 90 SSW 7 11 30.00 1016 7 11 0.00 0.00
6:54 am 06:54 Cloudy 70 21.1 67 19.4 90 90 S 10 17 30.00 1016 7 11 0.00 0.00
7:06 am 07:06 Cloudy with Mist and Fog 69 20.6 67 19.4 93 93 SSW 8 13 30.00 1016 6 10 0.00 0.00
7:54 am 07:54 Cloudy with Mist and Fog 71 21.7 67 19.4 87 87 SSW 8 13 29.99 1016 6 10 0.00 0.00
8:54 am 08:54 Cloudy 72 22.2 68 20 87 87 S 10 17 29.99 1016 7 11 0.00 0.00
9:08 am 09:08 Cloudy 73 22.8 69 20.6 87 87 S 10 17 29.99 1016 7 11 0.00 0.00
9:34 am 09:34 Cloudy 74 23.3 69 20.6 85 85 SSW 12 19 29.98 1015 10 16 0.00 0.00
9:54 am 09:54 Cloudy 75 23.9 69 20.6 82 82 S 8 13 29.97 1015 10 16 0.00 0.00
10:40 am 10:40 Mostly Cloudy 78 25.6 70 21.1 76 76 SSW 13 20 29.96 1014 10 16 0.00 0.00
10:54 am 10:54 Mostly Cloudy 79 26.1 70 21.1 74 74 SSW 10 17 29.95 1014 10 16 0.00 0.00
11:18 am 11:18 Partly Cloudy 82 27.8 70 21.1 67 67 SW 15 24 29.95 1014 10 16 0.00 0.00
11:54 am 11:54 Partly Cloudy 84 28.9 70 21.1 63 63 SW 14 22 29.93 1014 10 16 0.00 0.00
12:54 pm 12:54 Partly Cloudy 87 30.6 69 20.6 55 55 SW 14 22 29.90 1013 10 16 0.00 0.00
1:54 pm 13:54 Partly Cloudy 91 32.8 67 19.4 45 45 WSW 20 31 29.88 1012 10 16 0.00 0.00
2:54 pm 14:54 Mostly Cloudy 91 32.8 66 18.9 44 44 WSW 21 33 29.88 1012 10 16 0.00 0.00
3:54 pm 15:54 Partly Cloudy 91 32.8 67 19.4 45 45 SW 14 22 29.87 1011 10 16 0.00 0.00
4:54 pm 16:54 Partly Cloudy 91 32.8 67 19.4 45 45 SW 12 19 29.86 1011 10 16 0.00 0.00
5:54 pm 17:54 Mostly Cloudy 90 32.2 67 19.4 47 47 SW 13 20 29.86 1011 10 16 0.00 0.00
6:06 pm 18:06 Mostly Cloudy with Thunderstorms 90 32.2 68 20 48 48 SW 12 19 29.87 1011 10 16 0.00 0.00
6:42 pm 18:42 Windy with Storms Likely 78 25.6 71 21.7 79 79 NNW 30 48 29.90 1012 7 11 0.01 0.25
6:50 pm 18:50 Mostly Cloudy with Light Rain 77 25 72 22 83 83 NNW 18 30 29.89 1012 7 11 0.02 0.51
6:54 pm 18:54 Mostly Cloudy with Light Rain 77 25 71 21.7 82 82 N 14 22 29.89 1012 7 11 0.02 0.51
7:16 pm 19:16 Mostly Cloudy with Light Rain 79 26.1 71 21.7 77 77 VRB 5 7 29.89 1012 5 8 0.00 0.00
7:21 pm 19:21 Mostly Cloudy with Heavy Rain 80 26.7 71 21.7 74 74 VRB 7 11 29.91 1013 1 2 0.00 0.00
7:29 pm 19:29 Cloudy with Strong Thunderstorms 78 25.6 72 22.2 82 82 VRB 6 9 29.91 1013 3 4 0.07 1.78
7:39 pm 19:39 Cloudy with Thunderstorms 77 25 73 22.8 88 88 SW 10 17 29.91 1013 5 8 0.15 3.81
7:46 pm 19:46 Cloudy with Thunderstorms 77 25 72 22.2 85 85 S 12 19 29.91 1013 7 11 0.15 3.81
7:54 pm 19:54 Cloudy with Thunderstorms 77 25 72 22.2 85 85 S 10 17 29.90 1013 7 11 0.15 3.81
8:54 pm 20:54 Cloudy with Thunderstorms 76 24.4 72 22.2 88 88 SSE 3 6 29.93 1014 10 16 0.02 0.51
9:08 pm 21:08 Cloudy 75 23.9 71 21.7 88 88 S 3 6 29.94 1014 10 16 0.00 0.00
9:54 pm 21:54 Mostly Cloudy 76 24.4 71 21.7 85 85 N 6 9 29.93 1014 10 16 0.00 0.00
10:54 pm 22:54 Cloudy 74 23.3 71 21.7 91 91 Calm 29.96 1015 10 16 0.00 0.00
11:54 pm 23:54 Cloudy 77 25 70 21.1 79 79 Calm 29.97 1015 10 16 0.00 0.00

Powered by AerisWeather